Find Starlink 2033

NORAD ID: 47650 Int'l Des: 2021-012 Owner: SPXS Country: US Constellation: starlink operational
LEOCIRCULAR

リアルタイム位置

3D地球を読み込み中...

Starlink 2033について

説明を読み込み中...

次回通過

Passes for default location (London). Set your location on the main map for personalized predictions.

高度履歴

Loading altitude history...

軌道要素

1 47650U 21012AG 26124.05190068 .00053327 00000-0 14474-2 0 9994
2 47650 53.1504 150.7987 0006386 20.9414 339.1850 15.37092039288783
Epoch: May 4, 2026 • Age: 9 hours

現在のステータス

高度 458.4 km
速度 7.64 km/s
衛星直下点 9.85°N, 47.21°W
打ち上げ日 Feb 16, 2021
運用期間 5.2 years
タイプ internet

技術仕様

分類 Payload
質量 260.00 kg
乾燥質量 248.00 kg
総質量 260.00 kg
長さ 0.20 m
直径 2.80 m
スパン 9.00 m
形状 Box + pan
製造者 SPXS
バスタイプ Starlink
フェーズステータス In Orbit
所有者/国 SPXS/US

Most Searched